Location: El Limón
(10.3059°N, 67.6321°W)
Time: 11:29:40
(UTC+00:00)

Nadezhda 2 Rocket - Pass Details

Date: 15 December 2025
Orbit: 946 x 1011 km, 83.0° (Epoch: 12 January)

Event Time Altitude Azimuth Distance (km) Brightness Sun altitude
Rises 23:18:50 0° 351° (N) 3,604 7.4 -16.1°
Reaches altitude 10° 23:21:20 10° 348° (NNW) 2,661 6.7 -16.7°
Maximum altitude 23:27:20 64° 267° (W) 1,043 4.9 -18.0°
Drops below altitude 10° 23:33:23 10° 187° (S) 2,689 7.2 -19.4°
Sets 23:35:55 0° 184° (S) 3,643 7.8 -20.0°
